timestamp,wind_dir_avg,wind_spd_max_dir,wind_spd_avg,wind_spd_gust,battery_voltage,lat,long
2018-04-16 00:00:00+00:00,20.0,16.0,10.7,12.53,,47.59359,-54.27349
2018-04-16 00:10:00+00:00,21.0,13.0,9.09,10.49,,47.59359,-54.27349
2018-04-16 00:20:00+00:00,14.0,18.0,8.53,9.95,,47.59359,-54.27349
2018-04-16 00:30:00+00:00,15.0,16.0,8.61,10.23,,47.59359,-54.27349
2018-04-16 00:40:00+00:00,17.0,18.0,7.75,8.9,,47.59359,-54.27349
2018-04-16 00:50:00+00:00,18.0,19.0,10.0,11.42,,47.59359,-54.27349
2018-04-16 01:00:00+00:00,16.0,15.0,9.7,11.3,,47.59359,-54.27349
2018-04-16 01:10:00+00:00,13.0,15.0,10.91,12.58,,47.59359,-54.27349
2018-04-16 01:20:00+00:00,10.0,11.0,10.57,11.79,,47.59359,-54.27349
2018-04-16 01:30:00+00:00,13.0,8.0,9.84,11.03,,47.59359,-54.27349
2018-04-16 01:40:00+00:00,19.0,15.0,9.26,11.11,,47.59359,-54.27349
2018-04-16 01:50:00+00:00,12.0,14.0,12.91,14.94,,47.59359,-54.27349
2018-04-16 02:00:00+00:00,15.0,13.0,9.91,11.01,,47.59359,-54.27349
2018-04-16 02:10:00+00:00,12.0,15.0,12.26,14.4,,47.59359,-54.27349
2018-04-16 02:20:00+00:00,16.0,16.0,10.54,11.89,,47.59359,-54.27349
2018-04-16 02:30:00+00:00,7.0,2.0,11.0,12.26,,47.59359,-54.27349
2018-04-16 02:40:00+00:00,10.0,3.0,8.85,10.04,,47.59359,-54.27349
2018-04-16 02:50:00+00:00,11.0,15.0,7.77,8.84,,47.59359,-54.27349
2018-04-16 03:00:00+00:00,15.0,15.0,7.1,8.11,,47.59359,-54.27349
2018-04-16 03:10:00+00:00,11.0,15.0,7.73,8.91,,47.59359,-54.27349
2018-04-16 03:20:00+00:00,8.0,14.0,7.32,8.86,,47.59359,-54.27349
2018-04-16 03:30:00+00:00,354.0,357.0,6.26,7.19,,47.59359,-54.27349
2018-04-16 03:40:00+00:00,356.0,357.0,6.5,7.65,,47.59359,-54.27349
2018-04-16 03:50:00+00:00,351.0,347.0,7.36,8.44,,47.59359,-54.27349
2018-04-16 04:00:00+00:00,345.0,340.0,8.17,9.14,,47.59359,-54.27349
2018-04-16 04:10:00+00:00,354.0,354.0,7.7,8.47,,47.59359,-54.27349
2018-04-16 04:20:00+00:00,350.0,348.0,7.67,9.36,,47.59359,-54.27349
2018-04-16 04:30:00+00:00,357.0,353.0,8.02,9.61,,47.59359,-54.27349
2018-04-16 04:40:00+00:00,352.0,348.0,8.65,9.61,,47.59359,-54.27349
2018-04-16 04:50:00+00:00,352.0,349.0,8.12,9.43,,47.59359,-54.27349
2018-04-16 05:00:00+00:00,350.0,349.0,7.43,8.86,,47.59359,-54.27349
2018-04-16 05:10:00+00:00,352.0,357.0,7.24,8.07,,47.59359,-54.27349
2018-04-16 05:20:00+00:00,352.0,350.0,7.05,8.07,,47.59359,-54.27349
2018-04-16 05:30:00+00:00,353.0,354.0,8.01,9.34,,47.59359,-54.27349
2018-04-16 05:40:00+00:00,346.0,347.0,7.88,8.57,,47.59359,-54.27349
2018-04-16 05:50:00+00:00,353.0,355.0,8.59,9.54,,47.59359,-54.27349
2018-04-16 06:00:00+00:00,354.0,356.0,6.37,7.14,,47.59359,-54.27349
2018-04-16 06:10:00+00:00,344.0,337.0,6.14,7.1,,47.59359,-54.27349
2018-04-16 06:20:00+00:00,332.0,331.0,6.21,7.06,,47.59359,-54.27349
2018-04-16 06:30:00+00:00,330.0,338.0,7.04,7.86,,47.59359,-54.27349
2018-04-16 06:40:00+00:00,329.0,332.0,6.57,7.85,,47.59359,-54.27349
2018-04-16 06:50:00+00:00,335.0,338.0,6.45,7.18,,47.59359,-54.27349
2018-04-16 07:00:00+00:00,325.0,314.0,7.51,8.55,,47.59359,-54.27349
2018-04-16 07:10:00+00:00,334.0,332.0,7.46,8.09,,47.59359,-54.27349
2018-04-16 07:20:00+00:00,321.0,309.0,6.25,7.61,,47.59359,-54.27349
2018-04-16 07:30:00+00:00,320.0,325.0,7.05,8.15,,47.59359,-54.27349
2018-04-16 07:40:00+00:00,319.0,320.0,7.63,8.7,,47.59359,-54.27349
2018-04-16 07:50:00+00:00,305.0,302.0,5.41,6.63,,47.59359,-54.27349
2018-04-16 08:00:00+00:00,313.0,322.0,5.14,6.73,,47.59359,-54.27349
2018-04-16 08:10:00+00:00,327.0,329.0,6.52,8.45,,47.59359,-54.27349
2018-04-16 08:20:00+00:00,297.0,300.0,5.16,6.12,,47.59359,-54.27349
2018-04-16 08:30:00+00:00,307.0,308.0,5.95,6.85,,47.59359,-54.27349
2018-04-16 08:40:00+00:00,320.0,326.0,5.56,6.29,,47.59359,-54.27349
2018-04-16 08:50:00+00:00,327.0,327.0,5.93,7.48,,47.59359,-54.27349
2018-04-16 09:00:00+00:00,327.0,315.0,4.84,5.71,,47.59359,-54.27349
2018-04-16 09:10:00+00:00,334.0,331.0,4.76,5.61,,47.59359,-54.27349
2018-04-16 09:20:00+00:00,327.0,324.0,3.95,4.88,,47.59359,-54.27349
2018-04-16 09:30:00+00:00,320.0,315.0,4.12,5.38,,47.59359,-54.27349
2018-04-16 09:40:00+00:00,333.0,323.0,3.49,4.86,,47.59359,-54.27349
2018-04-16 09:50:00+00:00,327.0,318.0,1.84,2.39,,47.59359,-54.27349
2018-04-16 10:00:00+00:00,320.0,326.0,4.88,5.65,,47.59359,-54.27349
2018-04-16 10:10:00+00:00,315.0,315.0,6.41,7.45,,47.59359,-54.27349
2018-04-16 10:20:00+00:00,307.0,315.0,6.65,8.73,,47.59359,-54.27349
2018-04-16 10:30:00+00:00,320.0,330.0,6.5,7.65,,47.59359,-54.27349
2018-04-16 10:40:00+00:00,316.0,323.0,7.82,8.86,,47.59359,-54.27349
2018-04-16 10:50:00+00:00,321.0,321.0,9.07,10.35,,47.59359,-54.27349
2018-04-16 11:00:00+00:00,315.0,312.0,7.6,8.86,,47.59359,-54.27349
2018-04-16 11:10:00+00:00,323.0,323.0,7.77,8.88,,47.59359,-54.27349
2018-04-16 11:20:00+00:00,320.0,332.0,5.65,6.3,,47.59359,-54.27349
2018-04-16 11:30:00+00:00,318.0,321.0,8.21,9.45,,47.59359,-54.27349
2018-04-16 11:40:00+00:00,340.0,342.0,9.8,11.33,,47.59359,-54.27349
2018-04-16 11:50:00+00:00,328.0,322.0,7.81,8.73,,47.59359,-54.27349
2018-04-16 12:00:00+00:00,323.0,323.0,7.06,8.46,,47.59359,-54.27349
2018-04-16 12:10:00+00:00,336.0,338.0,7.71,8.55,,47.59359,-54.27349
2018-04-16 12:20:00+00:00,341.0,341.0,8.81,10.48,,47.59359,-54.27349
2018-04-16 12:30:00+00:00,321.0,316.0,9.89,11.3,,47.59359,-54.27349
2018-04-16 12:40:00+00:00,339.0,352.0,9.34,12.28,,47.59359,-54.27349
2018-04-16 12:50:00+00:00,350.0,348.0,10.75,11.87,,47.59359,-54.27349
2018-04-16 13:00:00+00:00,342.0,340.0,8.76,10.37,,47.59359,-54.27349
2018-04-16 13:10:00+00:00,342.0,339.0,12.52,13.62,,47.59359,-54.27349
2018-04-16 13:20:00+00:00,343.0,338.0,10.48,12.09,,47.59359,-54.27349
2018-04-16 13:30:00+00:00,346.0,345.0,12.86,14.69,,47.59359,-54.27349
2018-04-16 13:40:00+00:00,333.0,331.0,11.12,12.04,,47.59359,-54.27349
2018-04-16 13:50:00+00:00,354.0,356.0,10.74,12.44,,47.59359,-54.27349
2018-04-16 14:00:00+00:00,339.0,338.0,9.52,10.48,,47.59359,-54.27349
2018-04-16 14:10:00+00:00,338.0,332.0,11.09,13.16,,47.59359,-54.27349
2018-04-16 14:20:00+00:00,337.0,347.0,8.88,11.19,,47.59359,-54.27349
2018-04-16 14:30:00+00:00,345.0,344.0,9.84,11.43,,47.59359,-54.27349
2018-04-16 14:40:00+00:00,330.0,328.0,9.1,9.95,,47.59359,-54.27349
2018-04-16 14:50:00+00:00,352.0,350.0,8.07,9.16,,47.59359,-54.27349
2018-04-16 15:00:00+00:00,353.0,352.0,10.68,12.4,,47.59359,-54.27349
2018-04-16 15:10:00+00:00,340.0,354.0,7.48,9.11,,47.59359,-54.27349
2018-04-16 15:20:00+00:00,341.0,343.0,7.87,9.19,,47.59359,-54.27349
2018-04-16 15:30:00+00:00,341.0,340.0,9.73,11.08,,47.59359,-54.27349
2018-04-16 15:40:00+00:00,345.0,348.0,9.02,10.17,,47.59359,-54.27349
2018-04-16 15:50:00+00:00,336.0,336.0,8.78,10.67,,47.59359,-54.27349
2018-04-16 16:00:00+00:00,359.0,0.0,8.23,9.12,,47.59359,-54.27349
2018-04-16 16:10:00+00:00,334.0,338.0,9.67,11.18,,47.59359,-54.27349
2018-04-16 16:20:00+00:00,328.0,330.0,9.86,10.8,,47.59359,-54.27349
2018-04-16 16:30:00+00:00,329.0,334.0,8.47,10.97,,47.59359,-54.27349
2018-04-16 16:40:00+00:00,329.0,333.0,11.48,13.37,,47.59359,-54.27349
2018-04-16 16:50:00+00:00,345.0,350.0,9.06,10.26,,47.59359,-54.27349
2018-04-16 17:00:00+00:00,351.0,343.0,7.84,9.06,,47.59359,-54.27349
2018-04-16 17:10:00+00:00,336.0,325.0,10.29,11.66,,47.59359,-54.27349
2018-04-16 17:20:00+00:00,346.0,346.0,8.97,10.92,,47.59359,-54.27349
2018-04-16 17:30:00+00:00,324.0,327.0,8.5,11.52,,47.59359,-54.27349
2018-04-16 17:40:00+00:00,323.0,326.0,7.3,8.49,,47.59359,-54.27349
2018-04-16 17:50:00+00:00,336.0,331.0,10.55,11.98,,47.59359,-54.27349
2018-04-16 18:00:00+00:00,333.0,333.0,6.74,7.81,,47.59359,-54.27349
2018-04-16 18:10:00+00:00,335.0,339.0,7.75,9.62,,47.59359,-54.27349
2018-04-16 18:20:00+00:00,344.0,339.0,8.52,9.93,,47.59359,-54.27349
2018-04-16 18:30:00+00:00,356.0,359.0,9.89,10.76,,47.59359,-54.27349
2018-04-16 18:40:00+00:00,348.0,345.0,9.89,11.04,,47.59359,-54.27349
2018-04-16 18:50:00+00:00,0.0,4.0,9.83,10.91,,47.59359,-54.27349
2018-04-16 19:00:00+00:00,3.0,3.0,9.89,11.61,,47.59359,-54.27349
2018-04-16 19:10:00+00:00,358.0,356.0,9.78,11.12,,47.59359,-54.27349
2018-04-16 19:20:00+00:00,350.0,345.0,11.23,13.15,,47.59359,-54.27349
2018-04-16 19:30:00+00:00,339.0,340.0,8.16,9.39,,47.59359,-54.27349
2018-04-16 19:40:00+00:00,343.0,341.0,7.41,8.04,,47.59359,-54.27349
2018-04-16 19:50:00+00:00,344.0,344.0,9.87,11.37,,47.59359,-54.27349
2018-04-16 20:00:00+00:00,5.0,5.0,8.75,9.83,,47.59359,-54.27349
2018-04-16 20:10:00+00:00,343.0,340.0,8.55,9.66,,47.59359,-54.27349
2018-04-16 20:20:00+00:00,349.0,347.0,6.39,7.02,,47.59359,-54.27349
2018-04-16 20:30:00+00:00,353.0,355.0,8.01,8.69,,47.59359,-54.27349
2018-04-16 20:40:00+00:00,4.0,5.0,7.78,9.36,,47.59359,-54.27349
2018-04-16 20:50:00+00:00,359.0,4.0,6.45,7.1,,47.59359,-54.27349
2018-04-16 21:00:00+00:00,2.0,2.0,7.11,7.73,,47.59359,-54.27349
2018-04-16 21:10:00+00:00,350.0,349.0,6.86,7.37,,47.59359,-54.27349
2018-04-16 21:20:00+00:00,358.0,358.0,7.01,7.62,,47.59359,-54.27349
2018-04-16 21:30:00+00:00,346.0,350.0,5.92,6.49,,47.59359,-54.27349
2018-04-16 21:40:00+00:00,344.0,339.0,5.09,5.86,,47.59359,-54.27349
2018-04-16 21:50:00+00:00,351.0,355.0,5.68,6.17,,47.59359,-54.27349
2018-04-16 22:00:00+00:00,347.0,347.0,4.91,5.36,,47.59359,-54.27349
2018-04-16 22:10:00+00:00,350.0,351.0,4.88,5.28,,47.59359,-54.27349
2018-04-16 22:20:00+00:00,342.0,343.0,4.86,5.25,,47.59359,-54.27349
2018-04-16 22:30:00+00:00,345.0,347.0,5.24,5.57,,47.59359,-54.27349
2018-04-16 22:40:00+00:00,341.0,338.0,5.18,5.7,,47.59359,-54.27349
2018-04-16 22:50:00+00:00,337.0,336.0,5.01,5.15,,47.59359,-54.27349
2018-04-16 23:00:00+00:00,338.0,343.0,4.77,5.66,,47.59359,-54.27349
2018-04-16 23:10:00+00:00,333.0,334.0,4.53,4.82,,47.59359,-54.27349
2018-04-16 23:20:00+00:00,324.0,324.0,5.0,5.42,,47.59359,-54.27349
2018-04-16 23:30:00+00:00,340.0,337.0,5.51,5.96,,47.59359,-54.27349
2018-04-16 23:40:00+00:00,334.0,325.0,4.6,5.37,,47.59359,-54.27349
2018-04-16 23:50:00+00:00,322.0,322.0,5.46,6.17,,47.59359,-54.27349
